Home > Weather > Lakeland > Past weeks

Flag for USA Past Weather in Lakeland, Florida, USA — Yesterday and Last 2 Weeks

Now
75 °F

Clear.


Feels Like: 74 °F
Forecast: 75 / 89 °F
Wind: No wind

Location: Lakeland Regional

Current Time: Jul 1, 2016 at 2:21:22 AM

Latest Report: Jul 1, 2016 at 1:55 AM


Visibility: 10 mi

Pressure: 30.03 "Hg

Humidity: 94%

Dew Point: 73 °F

Location of LakelandLocation

Past Weather in Lakeland — Graph

°F

Lakeland Temperature Yesterday

Maximum temperature yesterday: 90 °F (at 1:50 PM)
Minimum temperature yesterday: 73 °F (at 12:15 AM)
Average temperature yesterday: 77 °F

High & Low Weather Summary for the Past Weeks

 TemperatureHumidityPressure
High93 °F (Jun 23, 3:50 PM)100% (Jun 17, 4:55 AM)30.22 "Hg (Jun 17, 4:55 AM)
Low64 °F (Jun 21, 4:15 AM)41% (Jun 17, 3:50 PM)29.90 "Hg (Jun 17, 6:50 PM)
Average78 °F82%30.07 "Hg
* Reported Jun 16 1:15 AM — Jul 1 1:15 AM, Lakeland, Weather by CustomWeather, © 2016

Note: Actual official high and low records may vary slightly from our data, if they occured in-between our weather recording intervals... More about our weather records

Advertising

Lakeland Weather History for the Previous 24 Hours

Scroll right to see more
 ConditionsComfort  
Time TempWeatherWind HumidityBarometerVisibility
1:15 AM
Fri, Jul 1
73 °FClear.3 mph100%30.04 "Hg10 mi
12:55 AM73 °FClear.3 mph100%30.04 "Hg10 mi
12:35 AM75 °FClear.No wind94%30.05 "Hg10 mi
12:15 AM75 °FClear.No wind94%30.05 "Hg10 mi
11:55 PM
Thu, Jun 30
77 °FClear.3 mph89%30.06 "Hg10 mi
11:35 PM77 °FClear.No wind89%30.05 "Hg10 mi
11:15 PM77 °FClear.No wind89%30.06 "Hg10 mi
10:55 PM77 °FClear.5 mph89%30.06 "Hg10 mi
10:35 PM77 °FPartly cloudy.No wind94%30.06 "Hg10 mi
10:15 PM77 °FLight rain. Mostly cloudy.3 mph94%30.07 "Hg10 mi
9:50 PM79 °FOvercast.No wind84%30.06 "Hg10 mi
8:50 PM77 °FScattered showers. Partly sunny.No wind89%30.06 "Hg10 mi
7:50 PM84 °FScattered showers. Scattered clouds.No wind74%30.02 "Hg10 mi
6:50 PM88 °FPassing clouds.3 mph62%30.01 "Hg10 mi
5:50 PM88 °FPassing clouds.5 mph66%29.99 "Hg10 mi
3:50 PM77 °FScattered showers. Broken clouds.3 mph89%30.01 "Hg10 mi
2:50 PM75 °FScattered showers. Partly sunny.7 mph94%30.03 "Hg10 mi
1:50 PM90 °FScattered showers. Partly sunny.No wind55%30.01 "Hg10 mi
12:50 PM88 °FPartly sunny.No wind62%30.03 "Hg10 mi
11:50 AM86 °FPartly sunny.No wind66%30.04 "Hg10 mi
10:54 AM84 °FPartly sunny.No wind70%30.04 "Hg10 mi
9:50 AM82 °FScattered clouds.No wind79%30.04 "Hg10 mi
8:56 AM81 °FSunny.No wind84%30.03 "Hg10 mi
7:52 AM75 °FSunny.No wind94%30.02 "Hg10 mi
6:51 AM73 °FClear.No wind94%30.02 "Hg10 mi
5:54 AM77 °FPassing clouds.No wind89%30.03 "Hg10 mi
5:35 AM73 °FClear.No wind94%29.99 "Hg10 mi
5:15 AM73 °FClear.No wind94%29.99 "Hg10 mi
4:55 AM73 °FClear.No wind94%29.99 "Hg10 mi
4:15 AM73 °FPassing clouds.No wind100%29.99 "Hg7 mi
3:55 AM73 °FClear.3 mph100%29.98 "Hg10 mi
3:35 AM73 °FClear.3 mph100%29.99 "Hg10 mi
3:15 AM73 °FClear.3 mph100%29.99 "Hg7 mi
2:55 AM73 °FClear.No wind100%29.99 "Hg7 mi
2:35 AM73 °FClear.No wind100%30.00 "Hg10 mi
2:15 AM73 °FPassing clouds.No wind100%30.00 "Hg7 mi
Weather by CustomWeather, © 2016

See weather overviewHow to use our weather pages